When you browse on this site, cookies collect data to enhance your experience and personalize the content and advertising you see.
Visit our Privacy Policy to learn more. By continuing to use the site, you agree to this use of cookies and data.
  • In Hungary
  • List of Countries
  • For 7 days
  • Water Temperature
  • Satellite Maps
  • Weather Map
  • News
  • Weather Widgets
  • user-avatar
    Login

    Hourly Weather Svoboda

    Today, 17 November, Saturday

    Time Temperature Precipitation Wind Pressure Humidity
    00:00 -4°C° 0 mm 2 mps 766 mmHg 26%
    01:00 -4°C° 0 mm 2 mps 766 mmHg 25%
    02:00 -2°C° 0 mm 1 mps 765 mmHg 25%
    03:00 -3°C° 0 mm 1 mps 765 mmHg 24%
    04:00 -3°C° 0 mm 1 mps 765 mmHg 24%
    05:00 -3°C° 0 mm 1 mps 765 mmHg 24%
    06:00 -3°C° 0 mm 1 mps 764 mmHg 23%
    07:00 -3°C° 0 mm 1 mps 764 mmHg 23%
    08:00 -2°C° 0 mm 1 mps 764 mmHg 22%
    09:00 -2°C° 0 mm 1 mps 763 mmHg 22%
    10:00 -1°C° 0 mm 1 mps 763 mmHg 20%
    11:00 0°C° 0 mm 1 mps 763 mmHg 19%
    12:00 +1°C° 0 mm 1 mps 763 mmHg 17%
    13:00 +1°C° 0 mm 1 mps 762 mmHg 19%
    14:00 -1°C° 0 mm 2 mps 761 mmHg 20%
    15:00 -1°C° 0 mm 2 mps 761 mmHg 22%
    16:00 -2°C° 0 mm 2 mps 760 mmHg 23%
    17:00 -2°C° 0 mm 2 mps 759 mmHg 24%
    18:00 -3°C° 0 mm 2 mps 759 mmHg 25%
    19:00 -4°C° 0 mm 3 mps 758 mmHg 25%
    20:00 -4°C° 0 mm 3 mps 758 mmHg 25%
    21:00 -4°C° 0 mm 3 mps 757 mmHg 25%
    22:00 -4°C° 0 mm 3 mps 756 mmHg 26%
    23:00 -4°C° 0 mm 3 mps 756 mmHg 26%

    Tomorrow, 18 November, Sunday

    Time Temperature Precipitation Wind Pressure Humidity
    00:00 -4°C° 0 mm 4 mps 755 mmHg 26%
    01:00 -4°C° 0 mm 4 mps 755 mmHg 26%
    02:00 -4°C° 0 mm 4 mps 754 mmHg 26%
    03:00 -4°C° 0 mm 4 mps 754 mmHg 27%
    04:00 -4°C° 0 mm 4 mps 753 mmHg 27%
    05:00 -4°C° 0 mm 4 mps 753 mmHg 27%
    06:00 -4°C° 0 mm 3 mps 752 mmHg 28%
    07:00 -4°C° 0 mm 3 mps 752 mmHg 28%
    08:00 -4°C° 0 mm 3 mps 752 mmHg 29%
    09:00 -4°C° 0 mm 3 mps 751 mmHg 30%
    10:00 -2°C° 0 mm 3 mps 751 mmHg 30%
    11:00 -1°C° 0 mm 3 mps 751 mmHg 30%
    12:00 -1°C° 0 mm 3 mps 751 mmHg 30%
    13:00 -1°C° 0 mm 3 mps 751 mmHg 31%
    14:00 -1°C° 0 mm 3 mps 751 mmHg 33%
    15:00 -1°C° 0 mm 2 mps 751 mmHg 34%
    16:00 -1°C° 0 mm 2 mps 751 mmHg 35%
    17:00 -2°C° 0 mm 2 mps 751 mmHg 37%
    18:00 -3°C° 0 mm 2 mps 752 mmHg 38%
    19:00 -3°C° 0 mm 2 mps 752 mmHg 38%
    20:00 -3°C° 0 mm 2 mps 752 mmHg 39%
    21:00 -3°C° 0 mm 2 mps 752 mmHg 39%
    22:00 -3°C° 0 mm 2 mps 752 mmHg 40%
    23:00 -3°C° 0 mm 2 mps 752 mmHg 41%

    Day after tomorrow, 19 November, Monday

    Time Temperature Precipitation Wind Pressure Humidity
    00:00 -4°C° 0 mm 2 mps 753 mmHg 42%
    01:00 -2°C° 0 mm 1 mps 753 mmHg 42%
    02:00 -2°C° 0 mm 1 mps 753 mmHg 43%
    03:00 -2°C° 0 mm 1 mps 753 mmHg 43%
    04:00 -2°C° 0 mm 1 mps 753 mmHg 44%
    05:00 -2°C° 0 mm 1 mps 754 mmHg 44%
    06:00 -2°C° 0 mm 1 mps 754 mmHg 45%
    07:00 -2°C° 0 mm 1 mps 754 mmHg 44%
    08:00 -2°C° 0 mm 1 mps 755 mmHg 44%
    09:00 -2°C° 0 mm 1 mps 755 mmHg 43%
    10:00 -1°C° 0 mm 1 mps 755 mmHg 41%
    11:00 0°C° 0 mm 1 mps 756 mmHg 39%
    12:00 +1°C° 0 mm 1 mps 756 mmHg 36%
    13:00 +1°C° 0 mm 1 mps 756 mmHg 37%
    14:00 +1°C° 0 mm 1 mps 756 mmHg 38%
    15:00 +1°C° 0 mm 1 mps 756 mmHg 39%
    16:00 0°C° 0 mm 1 mps 756 mmHg 41%
    17:00 0°C° 0 mm 1 mps 756 mmHg 42%
    18:00 -3°C° 0 mm 2 mps 756 mmHg 44%
    19:00 -3°C° 0 mm 2 mps 757 mmHg 45%
    20:00 -3°C° 0 mm 2 mps 757 mmHg 45%
    21:00 -3°C° 0 mm 2 mps 757 mmHg 45%
    22:00 -3°C° 0 mm 2 mps 757 mmHg 45%
    23:00 -3°C° 0 mm 2 mps 757 mmHg 46%

    20 November, Tuesday

    Time Temperature Precipitation Wind Pressure Humidity
    00:00 -4°C° 0 mm 2 mps 757 mmHg 46%
    01:00 -3°C° 0 mm 2 mps 757 mmHg 45%
    02:00 -3°C° 0 mm 2 mps 757 mmHg 45%
    03:00 -3°C° 0 mm 2 mps 757 mmHg 44%
    04:00 -3°C° 0 mm 2 mps 756 mmHg 45%
    05:00 -3°C° 0 mm 2 mps 756 mmHg 46%
    06:00 -3°C° 0 mm 2 mps 756 mmHg 47%
    07:00 -3°C° 0.1 mm 2 mps 756 mmHg 50%
    08:00 -3°C° 0.1 mm 2 mps 755 mmHg 53%
    09:00 -4°C° 0.1 mm 3 mps 755 mmHg 56%
    10:00 -2°C° 0 mm 3 mps 755 mmHg 53%
    11:00 -2°C° 0 mm 3 mps 755 mmHg 50%
    12:00 -1°C° 0 mm 3 mps 754 mmHg 47%
    13:00 -1°C° 0.1 mm 3 mps 754 mmHg 50%
    14:00 -2°C° 0.1 mm 3 mps 753 mmHg 52%
    15:00 -2°C° 0.1 mm 3 mps 753 mmHg 55%
    16:00 -2°C° 0 mm 3 mps 753 mmHg 55%
    17:00 -2°C° 0 mm 3 mps 752 mmHg 55%
    18:00 -2°C° 0 mm 2 mps 752 mmHg 56%
    19:00 -2°C° 0.1 mm 2 mps 752 mmHg 57%
    20:00 -3°C° 0.1 mm 2 mps 751 mmHg 58%
    21:00 -3°C° 0.1 mm 2 mps 751 mmHg 59%
    22:00 -3°C° 0.1 mm 2 mps 751 mmHg 65%
    23:00 -3°C° 0.1 mm 2 mps 750 mmHg 70%

    21 November, Wednesday

    Time Temperature Precipitation Wind Pressure Humidity
    00:00 -3°C° 0.1 mm 2 mps 750 mmHg 75%
    01:00 -4°C° 0.1 mm 3 mps 750 mmHg 77%
    02:00 -4°C° 0.1 mm 3 mps 749 mmHg 79%
    03:00 -4°C° 0.1 mm 3 mps 749 mmHg 81%
    04:00 -4°C° 0.2 mm 3 mps 749 mmHg 82%
    05:00 -4°C° 0.2 mm 3 mps 748 mmHg 83%
    06:00 -4°C° 0.2 mm 3 mps 748 mmHg 84%
    07:00 -4°C° 0.1 mm 4 mps 748 mmHg 84%
    08:00 -4°C° 0.1 mm 4 mps 748 mmHg 83%
    09:00 -4°C° 0.1 mm 4 mps 748 mmHg 83%
    10:00 -4°C° 0 mm 4 mps 748 mmHg 81%
    11:00 -4°C° 0 mm 5 mps 748 mmHg 79%
    12:00 -4°C° 0 mm 5 mps 748 mmHg 77%
    13:00 -4°C° 0 mm 5 mps 748 mmHg 77%
    14:00 -4°C° 0 mm 5 mps 748 mmHg 78%
    15:00 -4°C° 0 mm 5 mps 748 mmHg 78%
    16:00 -3°C° 0 mm 4 mps 749 mmHg 79%
    17:00 -3°C° 0 mm 4 mps 749 mmHg 81%
    18:00 -4°C° 0 mm 4 mps 749 mmHg 82%
    19:00 -4°C° 0 mm 4 mps 749 mmHg 83%
    20:00 -4°C° 0 mm 4 mps 749 mmHg 84%
    21:00 -4°C° 0 mm 4 mps 749 mmHg 85%
    22:00 -4°C° 0 mm 4 mps 749 mmHg 85%
    23:00 -4°C° 0 mm 4 mps 749 mmHg 85%

    22 November, Thursday

    Time Temperature Precipitation Wind Pressure Humidity
    00:00 -4°C° 0 mm 4 mps 750 mmHg 85%
    01:00 -5°C° 0 mm 4 mps 750 mmHg 85%
    02:00 -5°C° 0 mm 4 mps 750 mmHg 86%
    03:00 -5°C° 0 mm 4 mps 750 mmHg 86%
    04:00 -5°C° 0 mm 4 mps 750 mmHg 84%
    05:00 -4°C° 0 mm 4 mps 750 mmHg 83%
    06:00 -4°C° 0 mm 4 mps 750 mmHg 81%
    07:00 -5°C° 0 mm 4 mps 750 mmHg 81%
    08:00 -5°C° 0 mm 4 mps 750 mmHg 82%
    09:00 -5°C° 0 mm 4 mps 750 mmHg 82%
    10:00 -5°C° 0 mm 4 mps 750 mmHg 78%
    11:00 -5°C° 0 mm 4 mps 750 mmHg 74%
    12:00 -5°C° 0 mm 5 mps 750 mmHg 70%
    13:00 -4°C° 0 mm 4 mps 750 mmHg 72%
    14:00 -4°C° 0 mm 4 mps 750 mmHg 73%
    15:00 -4°C° 0 mm 4 mps 750 mmHg 74%
    16:00 -4°C° 0 mm 4 mps 750 mmHg 78%
    17:00 -5°C° 0 mm 4 mps 750 mmHg 81%
    18:00 -5°C° 0 mm 4 mps 750 mmHg 84%
    19:00 -6°C° 0 mm 5 mps 750 mmHg 82%
    20:00 -6°C° 0 mm 5 mps 750 mmHg 80%
    21:00 -6°C° 0 mm 6 mps 750 mmHg 78%
    22:00 -6°C° 0 mm 5 mps 750 mmHg 79%
    23:00 -5°C° 0 mm 5 mps 750 mmHg 80%
    Show more